Location: Unnamed
(34.9039°S, 56.1757°W)
Time: 12:36:34
(UTC-03:00)

ISS - Pass Details

Date: 16 December 2023
Orbit: 414 x 422 km, 51.6° (Epoch: 03 March)

Event Time Altitude Azimuth Distance (km) Brightness Sun altitude
Rises 01:26:47 0° 217° (SW) 2,425 0.6 -30.7°
Reaches altitude 10° 01:29:16 10° 200° (SSW) 1,547 -0.3 -30.6°
Enters shadow 01:29:49 13° 194° (SSW) 1,385 -0.5 -30.6°
